Terminal Aerodrome Forecast
Issued by NWS

Home | Current Version | Previous Version | Text Only | Print | Product List | Glossary On
Versions: 1 2 3 4 5 6 7 8 9 10 11 12 13 14 15 16 17 18 19 20 21 22 23 24 25 26 27 28 29 30 31 32 33 34 35 36 37 38 39 40 41 42 43 44 45 46 47 48 49 50
000
FTUS42 KMFL 230106 AAA
TAFMIA
TAF AMD
KMIA 230106Z 2301/2324 33008KT P6SM VCTS SCT025CB OVC070
      TEMPO 2301/2302 5SM TSRA BKN025CB
     FM231400 12009KT P6SM VCSH SCT030 BKN250
     FM231800 14011KT P6SM VCTS SCT030CB SCT250=

USA.gov is the U.S. government's official web portal to all federal, state and local government web resources and services.